Overview Statistics Trail Chart Weather Telemetry Raw packets
 

This is the latest recevied weather packets stored in our database for station/object 4S6DRJ-13. If no packets are shown the sender has not sent any weather packets the latest 10 day(s).

<< 420 421 422 423 424 425 426 >>
Time Temp. Humidity Pressure Rain* Wind** Luminosity Snow
1787822665 30° C 75% 1008.5 hPa 0 mm 2.24 m/s, 274° 438 W/m² -
1787822605 30° C 74% 1008.4 hPa 0 mm 1.79 m/s, 311° 446 W/m² -
1787822545 30° C 74% 1008.4 hPa 0 mm 4.02 m/s, 277° 477 W/m² -
1787822482 30° C 74% 1008.4 hPa 0 mm 3.13 m/s, 280° 492 W/m² -
1787822421 30° C 74% 1008.4 hPa 0 mm 2.68 m/s, 326° 508 W/m² -
1787822360 30° C 76% 1008.4 hPa 0 mm 1.79 m/s, 324° 516 W/m² -
1787822298 30° C 75% 1008.3 hPa 0 mm 1.34 m/s, 240° 513 W/m² -
1787822238 30° C 75% 1008.4 hPa 0 mm 1.79 m/s, 301° 511 W/m² -
1787822177 30° C 75% 1008.4 hPa 0 mm 1.79 m/s, 60° 485 W/m² -
1787822116 30° C 75% 1008.3 hPa 0 mm 0.89 m/s, 190° 522 W/m² -
1787822055 30° C 74% 1008.4 hPa 0 mm 1.34 m/s, 260° 531 W/m² -
1787821994 30° C 74% 1008.5 hPa 0 mm 1.34 m/s, 300° 492 W/m² -
1787821933 30.56° C 73% 1008.3 hPa 0 mm 3.58 m/s, 314° 519 W/m² -
1787821872 30.56° C 74% 1008.5 hPa 0 mm 2.68 m/s, 287° 535 W/m² -
1787821811 30° C 74% 1008.5 hPa 0 mm 4.02 m/s, 336° 515 W/m² -
1787821750 30° C 75% 1008.3 hPa 0 mm 0.89 m/s, 209° 471 W/m² -
1787821688 30° C 75% 1008.3 hPa 0 mm 0.45 m/s, 212° 576 W/m² -
1787821628 30° C 74% 1008.4 hPa 0 mm 1.79 m/s, 241° 563 W/m² -
1787821567 30° C 74% 1008.3 hPa 0 mm 0.89 m/s, 0° 552 W/m² -
1787821506 30° C 74% 1008.2 hPa 0 mm 2.24 m/s, 307° 591 W/m² -
1787821445 30° C 74% 1008.5 hPa 0 mm 1.79 m/s, 312° 595 W/m² -
1787821384 30° C 75% 1008.5 hPa 0 mm 1.79 m/s, 240° 599 W/m² -
1787821331 30° C 75% 1008.3 hPa 0 mm 0.89 m/s, 274° 597 W/m² -
1787821261 30° C 75% 1008.5 hPa 0 mm 0.89 m/s, 281° 408 W/m² -
1787821201 30° C 75% 1008.6 hPa 0 mm 1.79 m/s, 299° 522 W/m² -

* Rain latest hour (hover to see other rain measurements)
** Current wind speed in m/s (hover to see current wind gust speed)